{"data":{"norad_id":67668,"intl_designator":"2026-022W","name":"STARLINK-36625","alt_names":[],"object_type":"PAYLOAD","status":"ACTIVE","operator":null,"country":"US","launch_date":"2026-02-02","launch_site_code":"AFWTR","launch_vehicle":null,"mission":null,"orbit_class":"UNKNOWN","rcs_meters":null,"size_class":null,"mass_kg":null,"dimensions":null,"purposes":["comms"],"wikipedia_slug":null,"has_3d_model":false,"image_url":null,"decayed_at":null,"tle_current":{"epoch":"2026-05-25T01:03:02.012256Z","epoch_age_seconds":61462,"freshness":"FRESH","line1":"1 67668U 26022W   26145.04377329  .00016017  00000+0  49731-3 0  9999","line2":"2 67668  97.2831 178.2937 0001063  98.2974 261.8390 15.33451674 17276","mean_motion":15.33451674,"eccentricity":0.0001063,"inclination_deg":97.2831,"raan_deg":178.2937,"arg_perigee_deg":98.2974,"mean_anomaly_deg":261.839,"bstar":0.00049731,"rev_number":1727,"period_min":93.905795951415,"perigee_km":464.79583632997,"apogee_km":466.25079851345,"semimajor_km":6843.6603174217,"source":"CELESTRAK","updated_at":"2026-05-25T13:38:21.661088Z"}}}